#timestamp,LO_Frequency,Hit,StdDev 
1530615615.4,286046998.1,P
1530615635.2,286046998.6,N
1530615655.1,286047001.2,N
1530615656.0,286047001.2,N
1530615675.8,286046998.6,N
1530615695.6,286046996.5,N
1530615715.5,286046997.7,N
1530615735.3,286046997.4,N
1530615755.2,286046997.5,N
1530615775.9,286046997.2,N
1530615795.7,286046999.6,N
1530615815.6,286046999.5,N
1530615835.4,286046996.9,N
1530615855.2,286046997.3,N
1530615875.1,286046999.4,N
1530615876.0,286046999.4,N
1530615895.8,286046996.5,N
1530615915.7,286046998.0,N
1530615935.5,286046995.1,Y
1530615955.3,286046997.3,P
1530615975.2,286046995.4,P
1530615995.0,286046995.1,P
1530615995.9,286046995.1,Y
1530616015.8,286047000.9,P
1530616035.6,286047000.8,N
1530616055.4,286047000.7,N
1530616075.3,286047000.9,N
1530616095.1,286046998.3,N
1530616115.8,286046998.6,N
1530616135.7,286046998.9,N
1530616155.5,286046998.8,N
1530616175.4,286046998.8,N
1530616195.2,286046998.2,N
1530616215.0,286046999.5,N
1530616215.9,286046999.5,N
1530616235.8,286046999.2,N
1530616255.6,286046999.0,N
1530616275.4,286046998.6,N
1530616295.3,286046998.7,N
1530616315.1,286047001.1,N
1530616335.9,286046998.6,N
1530616355.7,286046998.7,N
1530616375.5,286046998.9,N
1530616395.4,286046998.8,N
1530616415.2,286046999.5,N
1530616435.0,286046998.2,N
1530616435.9,286046998.2,N
1530616455.8,286046998.9,N
1530616475.6,286046997.3,N
1530616495.5,286046996.9,N
1530616515.3,286046999.4,N
1530616535.1,286046999.4,N
1530616555.9,286046997.2,N
1530616575.7,286046997.5,N
1530616595.5,286046997.4,N
1530616615.4,286046996.6,Y
1530616635.2,286047000.0,P
1530616655.1,286047000.9,N
1530616656.0,286047000.9,N
1530616675.8,286047000.1,N
1530616695.6,286047002.5,Y
1530616715.5,286046999.8,P
1530616735.3,286047001.0,P
1530616755.2,286047002.0,P
1530616775.9,286047001.0,N
1530616795.7,286047000.0,N
1530616815.6,286046999.9,N
1530616835.4,286047000.3,N
1530616855.2,286047000.2,N
1530616875.1,286047002.1,Y
1530616876.0,286047002.1,P
1530616895.8,286047002.6,P
1530616915.7,286047002.8,P
1530616935.5,286047002.3,N
1530616955.3,286047000.2,N
1530616975.2,286047002.7,N
1530616995.0,286046999.9,N
1530616995.9,286046999.9,N
1530617015.8,286047000.2,N
1530617035.6,286047000.6,N
1530617055.4,286047000.6,N
1530617075.3,286047000.0,N
1530617095.1,286046999.7,N
1530617115.8,286047002.0,N
1530617135.7,286047000.4,N
1530617155.5,286046998.9,N
1530617175.4,286046998.2,N
1530617195.2,286046999.0,N
1530617215.0,286046998.7,N
1530617215.9,286046998.7,N
1530617235.8,286046998.7,N
1530617255.6,286046999.3,N
1530617275.4,286046997.2,N
1530617295.3,286046997.2,N
1530617315.1,286046996.7,N
1530617335.9,286046996.5,N
1530617355.7,286046996.7,N
1530617375.5,286046996.9,N
1530617395.4,286046997.1,N
1530617415.2,286046997.2,N
1530617435.0,286046996.9,N
1530617435.9,286046996.9,N
1530617455.8,286046996.5,N
1530617475.6,286046999.2,N
1530617495.5,286046997.2,N
1530617515.3,286046999.6,N
1530617535.1,286047001.2,N
1530617555.9,286047000.7,N
1530617575.7,286047000.9,N
1530617595.5,286046998.7,N
1530617615.4,286047000.5,N
1530617635.2,286047000.7,N
1530617655.1,286047000.6,N
1530617656.0,286047000.6,N
1530617675.8,286047000.2,N
1530617695.6,286046998.1,N
1530617715.5,286046998.1,N
1530617735.3,286047001.9,N
1530617755.1,286047003.1,N
1530617775.9,286047001.4,N
1530617795.7,286047006.7,Y
1530617815.6,286047006.2,P
1530617835.4,286047007.2,N
1530617855.2,286047005.1,N
1530617875.1,286047005.3,N
1530617876.0,286047005.3,N
1530617895.8,286047003.9,N
1530617915.7,286047002.7,N
1530617935.5,286047001.5,N
1530617955.3,286047002.1,N
1530617975.2,286047001.3,N
1530617995.0,286047006.7,N
1530617995.9,286047006.7,N
1530618015.7,286047005.1,N
1530618035.6,286047004.0,N
1530618055.4,286046999.7,N
1530618075.3,286047000.2,N
1530618095.1,286047000.8,N
1530618096.0,286047000.8,N
1530618115.8,286047001.1,N
1530618135.7,286047000.8,N
1530618155.5,286046998.7,N
1530618175.3,286047000.2,N
1530618195.2,286047000.9,N
1530618215.0,286047000.8,N
1530618215.9,286047000.8,N
1530618235.8,286046999.0,N
1530618255.6,286046999.0,N
1530618275.4,286046999.0,N
1530618295.3,286046996.6,N
1530618315.1,286046996.5,N
1530618335.9,286046997.9,N
1530618355.7,286046995.6,N
1530618375.5,286046996.4,N
1530618395.4,286046993.5,N
1530618415.2,286046996.4,N
1530618435.0,286046994.2,N
1530618435.9,286046994.2,N
1530618455.8,286046993.5,N
1530618475.6,286046993.8,N
1530618495.5,286046993.8,N
1530618515.3,286046995.5,N
1530618535.1,286046993.4,N
1530618555.9,286046996.2,N
1530618575.7,286046996.4,N
1530618595.5,286046993.7,N
1530618615.4,286046993.6,N
1530618635.2,286046996.0,N
1530618655.1,286046993.8,N
1530618656.0,286046993.8,N
1530618675.8,286046993.8,N
1530618695.6,286046994.5,N
1530618715.5,286046993.9,N
1530618735.3,286046993.6,N
1530618755.2,286046993.3,Y
1530618775.9,286046998.3,P
1530618795.7,286046998.7,N
1530618815.6,286046998.9,N
1530618835.4,286047000.5,N
1530618855.2,286047002.3,N
1530618875.1,286047006.5,Y
1530618876.0,286047006.5,P
1530618895.8,286047008.5,N
1530618915.7,286047008.8,N
1530618935.5,286047004.7,N
1530618955.3,286047005.5,N
1530618975.2,286047005.3,N
1530618995.0,286047005.4,N
1530618995.9,286047005.4,N
1530619015.7,286047003.5,N
1530619035.6,286047005.5,N
1530619055.4,286047003.1,N
1530619075.3,286047004.3,N
1530619095.1,286047004.2,N
1530619096.0,286047004.2,N
1530619115.8,286047001.9,N
1530619135.7,286047001.8,N
1530619155.5,286047001.8,N
1530619175.4,286047001.6,N
1530619195.2,286047001.7,N
